DEIMOS-1

Last updated on Tue Oct 15 2024 00:02:24 GMT+0000 (Coordinated Universal Time)

1 35681U 09041A 24288.50666947 .00001748 00000+0 27450-3 0 9994 2 35681 97.6843 104.1086 0002017 45.0452 315.0920 14.73776427816881
UTC large
Height (km)
Speed (km/s)
/
Latitude / Longitude
Inclination (degrees)
Orbital Period (minutes)
Azimuth
Elevation
Range (km)
Doppler Factor

Next 0 passes for location: London (51.5072 / 0.1276)

Sorry there are no passes over London.